Flag for Norway Weather past 2 weeks in Lillestrøm, Norway

Now
49 °F

Cool.


Feels Like: 49 °F
Forecast: 44 / 47 °F
Wind: 2 mph from Northeast

Location: Oslo-Blindern

Current Time: Oct 20, 2014 at 11:16:42 PM

Latest Report: Oct 20, 2014 at 10:00 PM


Visibility: N/A

Pressure: 29.50 "Hg

Humidity: 91%

Dew point: 46 °F

Location of LillestrømLocation

Historic Weather in Lillestrøm — Graph

°F

Lillestrøm temperature yesterday

Maximum temperature yesterday: 55 °F (at 4:00 PM)
Minimum temperature yesterday: 52 °F (at 11:00 AM)
Average temperature yesterday: 53 °F

Past Weeks' High & Low Weather Summary

 TemperatureHumidityPressure
High59 °F (Oct 20, 2:00 PM)100% (Oct 14, 8:00 AM)30.40 "Hg (Oct 14, 8:00 AM)
Low35 °F (Oct 14, 5:00 AM)58% (Oct 6, 3:00 PM)29.29 "Hg (Oct 20, 1:00 AM)
Average46 °F88%29.83 "Hg
* Reported Oct 5 10:00 PM — Oct 20 10:00 PM, Lillestrøm, Weather by CustomWeather, © 2014

Note: Actual official high and low records may vary slightly from our data, if they occured in-between our weather recording intervals... More about our weather records

Advertising

Lillestrøm weather history for previous 24 hours

 ConditionsComfort  
Time TempWeatherWind HumidityBarometerVisibility
10:00 PM
Oct 20
49 °FCool.2 mph91%29.50 "HgN/A
9:00 PM48 °FCool.2 mph91%29.50 "HgN/A
8:00 PM49 °FPassing clouds.2 mph91%29.47 "Hg43 mi
7:00 PM50 °FCool.2 mph91%29.47 "HgN/A
6:00 PM53 °FCool.1 mph85%29.44 "HgN/A
5:00 PM55 °FScattered clouds.1 mph74%29.44 "Hg40 mi
4:00 PM56 °FCool.2 mph71%29.41 "HgN/A
3:00 PM58 °FCool.2 mph66%29.41 "HgN/A
2:00 PM59 °FPassing clouds.2 mph70%29.38 "Hg47 mi
1:00 PM55 °FCool.2 mph76%29.38 "HgN/A
12:00 PM54 °FCool.2 mph86%29.38 "HgN/A
11:00 AM51 °FScattered clouds.2 mph98%29.35 "Hg43 mi
10:00 AM50 °FCool.1 mph98%29.35 "HgN/A
9:00 AM50 °FCool.1 mph98%29.32 "HgN/A
8:00 AM50 °FRain. Low clouds.1 mph98%29.29 "Hg2 mi
7:00 AM50 °FCool.2 mph98%29.29 "HgN/A
5:00 AM50 °FLow clouds.2 mph98%29.29 "Hg9 mi
4:00 AM50 °FCool.1 mph98%29.29 "HgN/A
3:00 AM51 °FCool.2 mph98%29.29 "HgN/A
2:00 AM51 °FLow clouds.2 mph98%29.29 "Hg12 mi
1:00 AM52 °FCool.3 mph97%29.29 "HgN/A
12:00 AM53 °FCool.3 mph97%29.32 "HgN/A
11:00 PM
Oct 19
53 °FSprinkles. Low clouds.3 mph97%29.32 "Hg4 mi
Weather by CustomWeather, © 2014

See weather overviewHow to use our weather pages